Volver al catálogo

ION-SCV-022

ActivoCienciaSSO
NORAD 66682·PAYLOAD·🇮🇹 Italy

Lanzado Nov 28, 2025 desde Vandenberg Space Force Base

Loading…

Próximos Pases (próximas 24 horas)

TLE

ActualizadoSource: Space-Track

Época: Sep 14, 2026, 10:15 UTC

1 66682U 25276S   26257.42733529  .00000069  00000-0  10547-4 0  9993
2 66682  97.5222 324.8986 0004202 221.3515 138.7390 14.98043922 43431

Sigue ION-SCV-022 en tiempo real con AllMySat

Download on the App Store